owner,sensor,date,latitude,longitude,vertical_datum,sea_water_temperature,qcFlag 
CenGOOS,ioos:station:wmo:42067:1,2016-02-01T11:40Z,30.0430,-88.6490,-1.4,14.0,2 
CenGOOS,ioos:station:wmo:42067:1,2016-02-01T14:40Z,30.0430,-88.6490,-1.4,14.2,2 
CenGOOS,ioos:station:wmo:42067:1,2016-02-01T17:40Z,30.0430,-88.6490,-1.4,14.7,2 
CenGOOS,ioos:station:wmo:42067:1,2016-02-01T20:40Z,30.0430,-88.6490,-1.4,16.2,2 
CenGOOS,ioos:station:wmo:42067:1,2016-02-02T02:40Z,30.0430,-88.6490,-1.4,15.7,2 
CenGOOS,ioos:station:wmo:42067:1,2016-02-02T05:40Z,30.0430,-88.6490,-1.4,16.1,2 
CenGOOS,ioos:station:wmo:42067:1,2016-02-02T08:40Z,30.0430,-88.6490,-1.4,15.9,2 
CenGOOS,ioos:station:wmo:42067:1,2016-02-02T14:40Z,30.0430,-88.6490,-1.4,15.9,2 
CenGOOS,ioos:station:wmo:42067:1,2016-02-02T17:40Z,30.0430,-88.6490,-1.4,15.8,2 
CenGOOS,ioos:station:wmo:42067:1,2016-02-02T20:40Z,30.0430,-88.6490,-1.4,15.9,2 
CenGOOS,ioos:station:wmo:42067:1,2016-02-02T23:40Z,30.0430,-88.6490,-1.4,15.8,2 
CenGOOS,ioos:station:wmo:42067:1,2016-02-03T02:40Z,30.0430,-88.6490,-1.4,15.9,2 
CenGOOS,ioos:station:wmo:42067:1,2016-02-03T05:40Z,30.0430,-88.6490,-1.4,16.3,2 
CenGOOS,ioos:station:wmo:42067:1,2016-02-03T08:40Z,30.0430,-88.6490,-1.4,16.1,2 
CenGOOS,ioos:station:wmo:42067:1,2016-02-03T11:40Z,30.0430,-88.6490,-1.4,16.0,2 
CenGOOS,ioos:station:wmo:42067:1,2016-02-03T14:40Z,30.0430,-88.6490,-1.4,16.3,2 
CenGOOS,ioos:station:wmo:42067:1,2016-02-03T20:40Z,30.0430,-88.6490,-1.4,16.8,2 
CenGOOS,ioos:station:wmo:42067:1,2016-02-03T23:40Z,30.0430,-88.6490,-1.4,16.7,2 
CenGOOS,ioos:station:wmo:42067:1,2016-02-04T05:40Z,30.0430,-88.6490,-1.4,16.5,2 
CenGOOS,ioos:station:wmo:42067:1,2016-02-04T08:40Z,30.0430,-88.6490,-1.4,16.2,2 
CenGOOS,ioos:station:wmo:42067:1,2016-02-04T11:40Z,30.0430,-88.6490,-1.4,15.8,2 
CenGOOS,ioos:station:wmo:42067:1,2016-02-04T14:40Z,30.0430,-88.6490,-1.4,16.2,2 
CenGOOS,ioos:station:wmo:42067:1,2016-02-04T17:40Z,30.0430,-88.6490,-1.4,16.6,2 
CenGOOS,ioos:station:wmo:42067:1,2016-02-04T20:40Z,30.0430,-88.6490,-1.4,16.8,2 
CenGOOS,ioos:station:wmo:42067:1,2016-02-04T23:40Z,30.0430,-88.6490,-1.4,16.7,2 
CenGOOS,ioos:station:wmo:42067:1,2016-02-05T02:40Z,30.0430,-88.6490,-1.4,16.5,2 
CenGOOS,ioos:station:wmo:42067:1,2016-02-05T05:40Z,30.0430,-88.6490,-1.4,16.4,2 
CenGOOS,ioos:station:wmo:42067:1,2016-02-05T08:40Z,30.0430,-88.6490,-1.4,16.3,2 
CenGOOS,ioos:station:wmo:42067:1,2016-02-05T11:40Z,30.0430,-88.6490,-1.4,16.2,2 
CenGOOS,ioos:station:wmo:42067:1,2016-02-05T14:40Z,30.0430,-88.6490,-1.4,15.4,2 
CenGOOS,ioos:station:wmo:42067:1,2016-02-05T17:40Z,30.0430,-88.6490,-1.4,16.3,2 
CenGOOS,ioos:station:wmo:42067:1,2016-02-05T20:40Z,30.0430,-88.6490,-1.4,16.7,2 
CenGOOS,ioos:station:wmo:42067:1,2016-02-05T23:40Z,30.0430,-88.6490,-1.4,16.5,2 
CenGOOS,ioos:station:wmo:42067:1,2016-02-06T02:40Z,30.0430,-88.6490,-1.4,16.4,2 
CenGOOS,ioos:station:wmo:42067:1,2016-02-06T05:40Z,30.0430,-88.6490,-1.4,16.4,2 
CenGOOS,ioos:station:wmo:42067:1,2016-02-06T11:40Z,30.0430,-88.6490,-1.4,16.2,2 
CenGOOS,ioos:station:wmo:42067:1,2016-02-06T14:40Z,30.0430,-88.6490,-1.4,16.1,2 
CenGOOS,ioos:station:wmo:42067:1,2016-02-06T17:40Z,30.0430,-88.6490,-1.4,16.2,2 
CenGOOS,ioos:station:wmo:42067:1,2016-02-06T20:40Z,30.0430,-88.6490,-1.4,16.4,2 
CenGOOS,ioos:station:wmo:42067:1,2016-02-06T23:40Z,30.0430,-88.6490,-1.4,16.3,2 
CenGOOS,ioos:station:wmo:42067:1,2016-02-07T02:40Z,30.0430,-88.6490,-1.4,16.0,2 
CenGOOS,ioos:station:wmo:42067:1,2016-02-07T05:40Z,30.0430,-88.6490,-1.4,16.0,2 
CenGOOS,ioos:station:wmo:42067:1,2016-02-07T08:40Z,30.0430,-88.6490,-1.4,16.0,2 
CenGOOS,ioos:station:wmo:42067:1,2016-02-07T11:40Z,30.0430,-88.6490,-1.4,15.8,2 
CenGOOS,ioos:station:wmo:42067:1,2016-02-07T14:40Z,30.0430,-88.6490,-1.4,14.1,2 
CenGOOS,ioos:station:wmo:42067:1,2016-02-07T17:40Z,30.0430,-88.6490,-1.4,14.3,2 
CenGOOS,ioos:station:wmo:42067:1,2016-02-07T20:40Z,30.0430,-88.6490,-1.4,14.8,2 
CenGOOS,ioos:station:wmo:42067:1,2016-02-07T23:40Z,30.0430,-88.6490,-1.4,15.1,2 
CenGOOS,ioos:station:wmo:42067:1,2016-02-08T02:40Z,30.0430,-88.6490,-1.4,16.1,2 
CenGOOS,ioos:station:wmo:42067:1,2016-02-08T05:40Z,30.0430,-88.6490,-1.4,16.2,2 
CenGOOS,ioos:station:wmo:42067:1,2016-02-08T08:40Z,30.0430,-88.6490,-1.4,16.1,2 
CenGOOS,ioos:station:wmo:42067:1,2016-02-08T11:40Z,30.0430,-88.6490,-1.4,16.0,2 
CenGOOS,ioos:station:wmo:42067:1,2016-02-08T14:40Z,30.0430,-88.6490,-1.4,16.0,2 
CenGOOS,ioos:station:wmo:42067:1,2016-02-08T20:40Z,30.0430,-88.6490,-1.4,14.9,2 
CenGOOS,ioos:station:wmo:42067:1,2016-02-08T23:40Z,30.0430,-88.6490,-1.4,14.9,2 
CenGOOS,ioos:station:wmo:42067:1,2016-02-09T05:40Z,30.0430,-88.6490,-1.4,15.7,2 
CenGOOS,ioos:station:wmo:42067:1,2016-02-09T08:40Z,30.0430,-88.6490,-1.4,15.8,2 
CenGOOS,ioos:station:wmo:42067:1,2016-02-09T11:40Z,30.0430,-88.6490,-1.4,15.5,2 
CenGOOS,ioos:station:wmo:42067:1,2016-02-09T14:40Z,30.0430,-88.6490,-1.4,15.5,2 
CenGOOS,ioos:station:wmo:42067:1,2016-02-09T17:40Z,30.0430,-88.6490,-1.4,15.6,2 
CenGOOS,ioos:station:wmo:42067:1,2016-02-09T20:40Z,30.0430,-88.6490,-1.4,15.9,2 
CenGOOS,ioos:station:wmo:42067:1,2016-02-10T02:40Z,30.0430,-88.6490,-1.4,15.8,2 
CenGOOS,ioos:station:wmo:42067:1,2016-02-10T05:40Z,30.0430,-88.6490,-1.4,16.0,2 
CenGOOS,ioos:station:wmo:42067:1,2016-02-10T08:40Z,30.0430,-88.6490,-1.4,16.0,2 
CenGOOS,ioos:station:wmo:42067:1,2016-02-10T11:40Z,30.0430,-88.6490,-1.4,15.7,2 
CenGOOS,ioos:station:wmo:42067:1,2016-02-10T14:40Z,30.0430,-88.6490,-1.4,16.2,2 
CenGOOS,ioos:station:wmo:42067:1,2016-02-10T17:40Z,30.0430,-88.6490,-1.4,16.6,2 
CenGOOS,ioos:station:wmo:42067:1,2016-02-10T23:40Z,30.0430,-88.6490,-1.4,15.5,2 
CenGOOS,ioos:station:wmo:42067:1,2016-02-11T02:40Z,30.0430,-88.6490,-1.4,16.4,2 
CenGOOS,ioos:station:wmo:42067:1,2016-02-11T05:40Z,30.0430,-88.6490,-1.4,16.7,2 
CenGOOS,ioos:station:wmo:42067:1,2016-02-13T05:40Z,30.0430,-88.6490,-1.4,14.8,2 
CenGOOS,ioos:station:wmo:42067:1,2016-02-13T08:40Z,30.0430,-88.6490,-1.4,15.2,2 
CenGOOS,ioos:station:wmo:42067:1,2016-02-13T11:40Z,30.0430,-88.6490,-1.4,15.4,2 
CenGOOS,ioos:station:wmo:42067:1,2016-02-13T14:40Z,30.0430,-88.6490,-1.4,15.5,2 
CenGOOS,ioos:station:wmo:42067:1,2016-02-13T17:40Z,30.0430,-88.6490,-1.4,16.0,2 
CenGOOS,ioos:station:wmo:42067:1,2016-02-13T20:40Z,30.0430,-88.6490,-1.4,16.3,2 
CenGOOS,ioos:station:wmo:42067:1,2016-02-13T23:40Z,30.0430,-88.6490,-1.4,16.3,2 
CenGOOS,ioos:station:wmo:42067:1,2016-02-14T02:40Z,30.0430,-88.6490,-1.4,15.8,2 
CenGOOS,ioos:station:wmo:42067:1,2016-02-14T05:40Z,30.0430,-88.6490,-1.4,15.8,2 
CenGOOS,ioos:station:wmo:42067:1,2016-02-14T08:40Z,30.0430,-88.6490,-1.4,15.7,2 
CenGOOS,ioos:station:wmo:42067:1,2016-02-14T14:40Z,30.0430,-88.6490,-1.4,15.7,2 
CenGOOS,ioos:station:wmo:42067:1,2016-02-14T17:40Z,30.0430,-88.6490,-1.4,15.8,2 
CenGOOS,ioos:station:wmo:42067:1,2016-02-14T20:40Z,30.0430,-88.6490,-1.4,15.9,2 
CenGOOS,ioos:station:wmo:42067:1,2016-02-14T23:40Z,30.0430,-88.6490,-1.4,15.8,2 
CenGOOS,ioos:station:wmo:42067:1,2016-02-15T02:40Z,30.0430,-88.6490,-1.4,15.9,2 
CenGOOS,ioos:station:wmo:42067:1,2016-02-15T05:40Z,30.0430,-88.6490,-1.4,15.9,2 
CenGOOS,ioos:station:wmo:42067:1,2016-02-15T08:40Z,30.0430,-88.6490,-1.4,16.0,2 
CenGOOS,ioos:station:wmo:42067:1,2016-02-15T11:40Z,30.0430,-88.6490,-1.4,16.0,2 
CenGOOS,ioos:station:wmo:42067:1,2016-02-15T14:40Z,30.0430,-88.6490,-1.4,16.1,2 
CenGOOS,ioos:station:wmo:42067:1,2016-02-15T17:40Z,30.0430,-88.6490,-1.4,16.3,2 
CenGOOS,ioos:station:wmo:42067:1,2016-02-15T20:40Z,30.0430,-88.6490,-1.4,16.4,2 
CenGOOS,ioos:station:wmo:42067:1,2016-02-15T23:40Z,30.0430,-88.6490,-1.4,16.4,2 
CenGOOS,ioos:station:wmo:42067:1,2016-02-16T02:40Z,30.0430,-88.6490,-1.4,16.4,2 
CenGOOS,ioos:station:wmo:42067:1,2016-02-16T05:40Z,30.0430,-88.6490,-1.4,16.5,2 
CenGOOS,ioos:station:wmo:42067:1,2016-02-16T08:40Z,30.0430,-88.6490,-1.4,16.5,2 
CenGOOS,ioos:station:wmo:42067:1,2016-02-16T11:40Z,30.0430,-88.6490,-1.4,16.6,2 
CenGOOS,ioos:station:wmo:42067:1,2016-02-16T14:40Z,30.0430,-88.6490,-1.4,16.8,2 
CenGOOS,ioos:station:wmo:42067:1,2016-02-16T17:40Z,30.0430,-88.6490,-1.4,17.5,2 
CenGOOS,ioos:station:wmo:42067:1,2016-02-16T20:40Z,30.0430,-88.6490,-1.4,17.6,2 
CenGOOS,ioos:station:wmo:42067:1,2016-02-16T23:40Z,30.0430,-88.6490,-1.4,17.1,2 
CenGOOS,ioos:station:wmo:42067:1,2016-02-17T02:40Z,30.0430,-88.6490,-1.4,16.8,2 
CenGOOS,ioos:station:wmo:42067:1,2016-02-17T05:40Z,30.0430,-88.6490,-1.4,16.6,2 
CenGOOS,ioos:station:wmo:42067:1,2016-02-17T08:40Z,30.0430,-88.6490,-1.4,16.5,2 
CenGOOS,ioos:station:wmo:42067:1,2016-02-17T11:40Z,30.0430,-88.6490,-1.4,16.6,2 
CenGOOS,ioos:station:wmo:42067:1,2016-02-17T14:40Z,30.0430,-88.6490,-1.4,16.8,2 
CenGOOS,ioos:station:wmo:42067:1,2016-02-17T17:40Z,30.0430,-88.6490,-1.4,17.1,2 
CenGOOS,ioos:station:wmo:42067:1,2016-02-17T20:40Z,30.0430,-88.6490,-1.4,17.7,2 
CenGOOS,ioos:station:wmo:42067:1,2016-02-17T23:40Z,30.0430,-88.6490,-1.4,17.6,2 
CenGOOS,ioos:station:wmo:42067:1,2016-02-18T02:40Z,30.0430,-88.6490,-1.4,17.2,2 
CenGOOS,ioos:station:wmo:42067:1,2016-02-18T05:40Z,30.0430,-88.6490,-1.4,17.4,2 
CenGOOS,ioos:station:wmo:42067:1,2016-02-18T08:40Z,30.0430,-88.6490,-1.4,17.3,2 
CenGOOS,ioos:station:wmo:42067:1,2016-02-18T11:40Z,30.0430,-88.6490,-1.4,17.0,2 
CenGOOS,ioos:station:wmo:42067:1,2016-02-18T14:40Z,30.0430,-88.6490,-1.4,17.1,2 
CenGOOS,ioos:station:wmo:42067:1,2016-02-18T17:40Z,30.0430,-88.6490,-1.4,17.2,2 
CenGOOS,ioos:station:wmo:42067:1,2016-02-18T23:40Z,30.0430,-88.6490,-1.4,17.3,2 
CenGOOS,ioos:station:wmo:42067:1,2016-02-19T02:44Z,30.0430,-88.6490,-1.4,17.2,2 
CenGOOS,ioos:station:wmo:42067:1,2016-02-19T05:40Z,30.0430,-88.6490,-1.4,17.1,2 
CenGOOS,ioos:station:wmo:42067:1,2016-02-19T08:40Z,30.0430,-88.6490,-1.4,17.0,2 
CenGOOS,ioos:station:wmo:42067:1,2016-02-19T11:40Z,30.0430,-88.6490,-1.4,16.5,2 
CenGOOS,ioos:station:wmo:42067:1,2016-02-19T17:40Z,30.0430,-88.6490,-1.4,17.3,2 
CenGOOS,ioos:station:wmo:42067:1,2016-02-19T20:40Z,30.0430,-88.6490,-1.4,17.9,2 
CenGOOS,ioos:station:wmo:42067:1,2016-02-19T23:40Z,30.0430,-88.6490,-1.4,17.4,2 
CenGOOS,ioos:station:wmo:42067:1,2016-02-20T02:40Z,30.0430,-88.6490,-1.4,17.4,2 
CenGOOS,ioos:station:wmo:42067:1,2016-02-20T05:40Z,30.0430,-88.6490,-1.4,17.4,2 
CenGOOS,ioos:station:wmo:42067:1,2016-02-20T08:40Z,30.0430,-88.6490,-1.4,17.0,2 
CenGOOS,ioos:station:wmo:42067:1,2016-02-20T11:40Z,30.0430,-88.6490,-1.4,16.9,2 
CenGOOS,ioos:station:wmo:42067:1,2016-02-20T14:40Z,30.0430,-88.6490,-1.4,16.9,2 
CenGOOS,ioos:station:wmo:42067:1,2016-02-20T17:40Z,30.0430,-88.6490,-1.4,18.1,2 
CenGOOS,ioos:station:wmo:42067:1,2016-02-20T20:40Z,30.0430,-88.6490,-1.4,18.2,2 
CenGOOS,ioos:station:wmo:42067:1,2016-02-20T23:40Z,30.0430,-88.6490,-1.4,17.9,2 
CenGOOS,ioos:station:wmo:42067:1,2016-02-21T02:40Z,30.0430,-88.6490,-1.4,17.8,2 
CenGOOS,ioos:station:wmo:42067:1,2016-02-21T05:40Z,30.0430,-88.6490,-1.4,17.5,2 
CenGOOS,ioos:station:wmo:42067:1,2016-02-21T08:40Z,30.0430,-88.6490,-1.4,17.4,2 
CenGOOS,ioos:station:wmo:42067:1,2016-02-21T11:40Z,30.0430,-88.6490,-1.4,17.7,2 
CenGOOS,ioos:station:wmo:42067:1,2016-02-21T14:40Z,30.0430,-88.6490,-1.4,17.4,2 
CenGOOS,ioos:station:wmo:42067:1,2016-02-21T17:40Z,30.0430,-88.6490,-1.4,18.2,2 
CenGOOS,ioos:station:wmo:42067:1,2016-02-21T20:40Z,30.0430,-88.6490,-1.4,18.7,2 
CenGOOS,ioos:station:wmo:42067:1,2016-02-21T23:40Z,30.0430,-88.6490,-1.4,18.2,2 
CenGOOS,ioos:station:wmo:42067:1,2016-02-22T02:40Z,30.0430,-88.6490,-1.4,17.9,2 
CenGOOS,ioos:station:wmo:42067:1,2016-02-22T05:40Z,30.0430,-88.6490,-1.4,17.8,2 
CenGOOS,ioos:station:wmo:42067:1,2016-02-22T08:40Z,30.0430,-88.6490,-1.4,18.4,2 
CenGOOS,ioos:station:wmo:42067:1,2016-02-22T11:40Z,30.0430,-88.6490,-1.4,18.2,2 
CenGOOS,ioos:station:wmo:42067:1,2016-02-22T14:40Z,30.0430,-88.6490,-1.4,18.2,2 
CenGOOS,ioos:station:wmo:42067:1,2016-02-22T20:40Z,30.0430,-88.6490,-1.4,18.3,2 
CenGOOS,ioos:station:wmo:42067:1,2016-02-22T23:40Z,30.0430,-88.6490,-1.4,18.5,2 
CenGOOS,ioos:station:wmo:42067:1,2016-02-23T02:40Z,30.0430,-88.6490,-1.4,18.2,2 
CenGOOS,ioos:station:wmo:42067:1,2016-02-23T05:40Z,30.0430,-88.6490,-1.4,18.1,2 
CenGOOS,ioos:station:wmo:42067:1,2016-02-23T08:40Z,30.0430,-88.6490,-1.4,17.8,2 
CenGOOS,ioos:station:wmo:42067:1,2016-02-23T14:40Z,30.0430,-88.6490,-1.4,18.2,2 
CenGOOS,ioos:station:wmo:42067:1,2016-02-23T20:40Z,30.0430,-88.6490,-1.4,18.7,2 
CenGOOS,ioos:station:wmo:42067:1,2016-02-23T23:40Z,30.0430,-88.6490,-1.4,18.5,2 
CenGOOS,ioos:station:wmo:42067:1,2016-02-24T02:40Z,30.0430,-88.6490,-1.4,18.3,2 
CenGOOS,ioos:station:wmo:42067:1,2016-02-24T05:40Z,30.0430,-88.6490,-1.4,17.8,2 
CenGOOS,ioos:station:wmo:42067:1,2016-02-24T08:40Z,30.0430,-88.6490,-1.4,17.7,2 
CenGOOS,ioos:station:wmo:42067:1,2016-02-24T11:40Z,30.0430,-88.6490,-1.4,17.6,2 
CenGOOS,ioos:station:wmo:42067:1,2016-02-24T14:40Z,30.0430,-88.6490,-1.4,17.4,2 
CenGOOS,ioos:station:wmo:42067:1,2016-02-24T17:40Z,30.0430,-88.6490,-1.4,17.5,2 
CenGOOS,ioos:station:wmo:42067:1,2016-02-25T02:40Z,30.0430,-88.6490,-1.4,17.3,2 
CenGOOS,ioos:station:wmo:42067:1,2016-02-25T05:40Z,30.0430,-88.6490,-1.4,17.2,2 
CenGOOS,ioos:station:wmo:42067:1,2016-02-25T08:40Z,30.0430,-88.6490,-1.4,17.2,2 
CenGOOS,ioos:station:wmo:42067:1,2016-02-25T11:40Z,30.0430,-88.6490,-1.4,17.0,2 
CenGOOS,ioos:station:wmo:42067:1,2016-02-25T14:40Z,30.0430,-88.6490,-1.4,16.8,2 
CenGOOS,ioos:station:wmo:42067:1,2016-02-25T17:40Z,30.0430,-88.6490,-1.4,17.1,2 
CenGOOS,ioos:station:wmo:42067:1,2016-02-25T20:40Z,30.0430,-88.6490,-1.4,17.3,2 
CenGOOS,ioos:station:wmo:42067:1,2016-02-25T23:40Z,30.0430,-88.6490,-1.4,17.3,2 
CenGOOS,ioos:station:wmo:42067:1,2016-02-26T02:40Z,30.0430,-88.6490,-1.4,17.2,2 
CenGOOS,ioos:station:wmo:42067:1,2016-02-26T11:40Z,30.0430,-88.6490,-1.4,17.1,2 
CenGOOS,ioos:station:wmo:42067:1,2016-02-26T14:40Z,30.0430,-88.6490,-1.4,17.1,2 
CenGOOS,ioos:station:wmo:42067:1,2016-02-26T17:40Z,30.0430,-88.6490,-1.4,16.7,2 
CenGOOS,ioos:station:wmo:42067:1,2016-02-26T20:40Z,30.0430,-88.6490,-1.4,17.2,2 
CenGOOS,ioos:station:wmo:42067:1,2016-02-26T23:40Z,30.0430,-88.6490,-1.4,17.2,2 
CenGOOS,ioos:station:wmo:42067:1,2016-02-27T02:40Z,30.0430,-88.6490,-1.4,16.9,2 
CenGOOS,ioos:station:wmo:42067:1,2016-02-27T05:40Z,30.0430,-88.6490,-1.4,16.9,2 
CenGOOS,ioos:station:wmo:42067:1,2016-02-28T11:40Z,30.0430,-88.6490,-1.4,17.2,2 
CenGOOS,ioos:station:wmo:42067:1,2016-02-28T14:40Z,30.0430,-88.6490,-1.4,17.2,2 
CenGOOS,ioos:station:wmo:42067:1,2016-02-28T20:40Z,30.0430,-88.6490,-1.4,17.6,2 
CenGOOS,ioos:station:wmo:42067:1,2016-02-29T05:40Z,30.0430,-88.6490,-1.4,16.7,2 
CenGOOS,ioos:station:wmo:42067:1,2016-02-29T11:40Z,30.0430,-88.6490,-1.4,16.1,2 
CenGOOS,ioos:station:wmo:42067:1,2016-02-29T14:40Z,30.0430,-88.6490,-1.4,16.7,2 
 
DISCLAIMER: The Gulf of Mexico Coastal and Ocean Observing (GCOOS) Data Portal aggregates data from the regional data providers for the convenience of all data users. Data published on this website should not be used for navigation or certain other uses as we cannot guarantee data accuracy or availability. The data and delivery services are provided 'as is' without warranty of any kind. Data Source: Gulf of Mexico Coastal Ocean Observing System Data Portal (http://data.gcoos.org/) 
